Location: Orange
(33.2833°S, 149.1000°E)
Time: 11:12:42
(UTC+11:00)

N. Korean satellite - Pass Details

Date: 14 December 2021
Orbit: 447 x 491 km, 97.3° (Epoch: 23 January)

Event Time Altitude Azimuth Distance (km) Brightness Sun altitude
Rises 05:06:20 0° 31° (NNE) 2,502 10.2 -8.3°
Reaches altitude 10° 05:08:28 10° 41° (NE) 1,643 9.3 -7.9°
Maximum altitude 05:11:41 33° 106° (ESE) 834 8.6 -7.3°
Drops below altitude 10° 05:14:58 10° 171° (S) 1,691 10.0 -6.8°
Sets 05:17:12 0° 180° (S) 2,589 10.8 -6.4°
